Location: Seattle
(47.6064°N, 122.3308°W)
Time: 04:47:07
(UTC-08:00)

S-56A Canister/Altair - Pass Details

Date: 29 November 2020
Orbit: 633 x 2499 km, 38.9° (Epoch: 23 January)

Event Time Altitude Azimuth Distance (km) Brightness Sun altitude
Rises 19:01:57 0° 227° (SW) 5,798 12.7 -26.5°
Reaches altitude 10° 19:06:29 10° 220° (SW) 4,556 12.0 -27.2°
Maximum altitude 19:16:47 35° 161° (SSE) 2,383 9.8 -29.0°
Enters shadow 19:18:11 34° 145° (SE) 2,344 9.6 -29.2°
Drops below altitude 10° 19:24:07 10° 99° (E) 3,227 - -30.2°
Sets 19:26:46 0° 90° (E) 3,961 - -30.6°
